| time (UTC) | temp F | wind direction | speed MPH | gust MPH | rain 1hr in | rain 24hr in | rain mn in | humidity % | barometer mb |
| 20260508190004 | 63 | 290 | 3.0 | 5.0 | 0.00 | 0.00 | 0.00 | 68 | 1007.6 |
| 20260508184502 | 63 | 281 | 3.0 | 8.0 | 0.00 | 0.00 | 0.00 | 68 | 1007.9 |
| 20260508183002 | 63 | 254 | 6.0 | 10.0 | 0.00 | 0.00 | 0.00 | 67 | 1008.3 |
| 20260508181502 | 64 | 182 | 5.0 | 12.0 | 0.00 | 0.00 | 0.00 | 66 | 1008.5 |
| 20260508180002 | 64 | 255 | 3.0 | 11.0 | 0.00 | 0.00 | 0.00 | 67 | 1008.3 |
| 20260508174501 | 64 | 229 | 4.0 | 12.0 | 0.00 | 0.00 | 0.00 | 65 | 1008.0 |
| 20260508173058 | 64 | 269 | 2.0 | 7.0 | 0.00 | 0.00 | 0.00 | 70 | 1007.2 |
| 20260508171554 | 62 | 192 | 1.0 | 4.0 | 0.00 | 0.00 | 0.00 | 70 | 1007.5 |
| 20260508170058 | 62 | 279 | 4.0 | 10.0 | 0.00 | 0.00 | 0.00 | 69 | 1008.7 |
| 20260508164551 | 62 | 264 | 3.0 | 10.0 | 0.00 | 0.00 | 0.00 | 68 | 1008.9 |
| 20260508163100 | 62 | 260 | 6.0 | 11.0 | 0.00 | 0.00 | 0.00 | 69 | 1008.7 |
| 20260508161554 | 61 | 251 | 3.0 | 9.0 | 0.00 | 0.00 | 0.00 | 72 | 1009.2 |
| 20260508160042 | 60 | 249 | 3.0 | 9.0 | 0.00 | 0.00 | 0.00 | 73 | 1008.9 |
| 20260508154538 | 59 | 253 | 3.0 | 9.0 | 0.00 | 0.00 | 0.00 | 76 | 1009.0 |
| 20260508153052 | 58 | 250 | 4.0 | 9.0 | 0.00 | 0.00 | 0.00 | 76 | 1008.9 |
| 20260508151535 | 58 | 254 | 3.0 | 9.0 | 0.00 | 0.00 | 0.00 | 77 | 1008.8 |
| 20260508150033 | 58 | 235 | 1.0 | 8.0 | 0.00 | 0.00 | 0.00 | 78 | 1008.3 |
| 20260508144532 | 57 | 263 | 3.0 | 9.0 | 0.00 | 0.00 | 0.00 | 80 | 1008.9 |
| 20260508143050 | 56 | 249 | 2.0 | 7.0 | 0.00 | 0.00 | 0.00 | 83 | 1009.2 |
| 20260508141531 | 55 | 234 | 1.0 | 5.0 | 0.00 | 0.00 | 0.00 | 83 | 1009.3 |
| 20260508140028 | 54 | 234 | 0.0 | 3.0 | 0.00 | 0.00 | 0.00 | 84 | 1009.3 |
| 20260508134534 | 54 | 234 | 1.0 | 3.0 | 0.00 | 0.00 | 0.00 | 84 | 1009.3 |
| 20260508133028 | 53 | 234 | 1.0 | 3.0 | 0.00 | 0.00 | 0.00 | 84 | 1009.5 |
| 20260508131527 | 53 | 227 | 1.0 | 5.0 | 0.00 | 0.00 | 0.00 | 85 | 1009.5 |
| 20260508130026 | 52 | 228 | 0.0 | 2.0 | 0.00 | 0.00 | 0.00 | 86 | 1009.1 |
| 20260508124529 | 51 | 228 | 0.0 | 2.0 | 0.00 | 0.00 | 0.00 | 86 | 1009.1 |
| 20260508123028 | 50 | 228 | 0.0 | 2.0 | 0.00 | 0.00 | 0.00 | 86 | 1009.0 |
| 20260508121525 | 50 | 228 | 1.0 | 3.0 | 0.00 | 0.00 | 0.00 | 86 | 1009.0 |
| 20260508120023 | 49 | 232 | 1.0 | 3.0 | 0.00 | 0.00 | 0.00 | 85 | 1008.9 |
| 20260508114524 | 49 | 232 | 0.0 | 0.0 | 0.00 | 0.00 | 0.00 | 85 | 1009.0 |
| 20260508113023 | 49 | 232 | 0.0 | 0.0 | 0.00 | 0.00 | 0.00 | 84 | 1008.9 |
| 20260508111522 | 49 | 232 | 0.0 | 0.0 | 0.00 | 0.00 | 0.00 | 84 | 1008.7 |
| 20260508110029 | 49 | 232 | 0.0 | 0.0 | 0.00 | 0.00 | 0.00 | 82 | 1008.6 |
| 20260508104519 | 49 | 232 | 0.0 | 0.0 | 0.00 | 0.00 | 0.00 | 81 | 1008.8 |
| 20260508103035 | 49 | 232 | 0.0 | 0.0 | 0.00 | 0.00 | 0.00 | 81 | 1008.5 |
| 20260508101517 | 50 | 232 | 0.0 | 0.0 | 0.00 | 0.00 | 0.00 | 79 | 1008.6 |
| 20260508100016 | 50 | 232 | 0.0 | 0.0 | 0.00 | 0.00 | 0.00 | 78 | 1008.5 |
| 20260508094512 | 51 | 232 | 0.0 | 0.0 | 0.00 | 0.00 | 0.00 | 77 | 1008.5 |
| 20260508093011 | 51 | 232 | 0.0 | 0.0 | 0.00 | 0.00 | 0.00 | 77 | 1008.6 |
| 20260508091513 | 52 | 232 | 0.0 | 0.0 | 0.00 | 0.00 | 0.00 | 76 | 1008.5 |
| 20260508090007 | 52 | 232 | 0.0 | 0.0 | 0.00 | 0.00 | 0.00 | 75 | 1008.5 |
| 20260508084505 | 53 | 232 | 0.0 | 0.0 | 0.00 | 0.00 | 0.00 | 74 | 1008.3 |
| 20260508083003 | 53 | 232 | 0.0 | 2.0 | 0.00 | 0.00 | 0.00 | 73 | 1008.5 |
| 20260508081500 | 53 | 232 | 1.0 | 4.0 | 0.00 | 0.00 | 0.00 | 73 | 1008.5 |
| 20260508074607 | 54 | 227 | 1.0 | 5.0 | 0.00 | 0.00 | 0.00 | 73 | 1008.7 |
| 20260508073055 | 54 | 227 | 1.0 | 6.0 | 0.00 | 0.00 | 0.00 | 72 | 1008.9 |
| 20260508071553 | 54 | 226 | 0.0 | 3.0 | 0.00 | 0.00 | 0.00 | 71 | 1009.0 |
| 20260508070049 | 55 | 226 | 1.0 | 4.0 | 0.00 | 0.00 | 0.00 | 71 | 1009.2 |
| 20260508064548 | 55 | 223 | 1.0 | 5.0 | 0.00 | 0.00 | 0.00 | 70 | 1009.3 |
| 20260508063050 | 55 | 223 | 1.0 | 6.0 | 0.00 | 0.00 | 0.00 | 70 | 1009.5 |
| 20260508061543 | 56 | 255 | 2.0 | 7.0 | 0.00 | 0.00 | 0.00 | 70 | 1009.6 |
| 20260508060055 | 56 | 244 | 1.0 | 6.0 | 0.00 | 0.00 | 0.00 | 69 | 1009.8 |
| 20260508054611 | 56 | 294 | 1.0 | 6.0 | 0.00 | 0.00 | 0.00 | 69 | 1009.7 |
| 20260508053047 | 56 | 252 | 2.0 | 7.0 | 0.00 | 0.00 | 0.00 | 68 | 1009.8 |
| 20260508051537 | 57 | 248 | 2.0 | 7.0 | 0.00 | 0.00 | 0.00 | 68 | 1009.9 |
| 20260508050032 | 57 | 243 | 2.0 | 8.0 | 0.00 | 0.00 | 0.00 | 68 | 1009.9 |
| 20260508044533 | 57 | 239 | 2.0 | 7.0 | 0.00 | 0.00 | 0.00 | 67 | 1010.0 |
| 20260508043035 | 57 | 229 | 1.0 | 6.0 | 0.00 | 0.00 | 0.00 | 67 | 1010.0 |
| 20260508041530 | 57 | 238 | 2.0 | 4.0 | 0.00 | 0.00 | 0.00 | 67 | 1010.1 |
| 20260508040033 | 57 | 235 | 1.0 | 5.0 | 0.00 | 0.00 | 0.00 | 67 | 1010.1 |
| 20260508034536 | 57 | 219 | 2.0 | 5.0 | 0.00 | 0.00 | 0.00 | 66 | 1010.0 |
| 20260508033033 | 57 | 223 | 0.0 | 5.0 | 0.00 | 0.00 | 0.00 | 65 | 1010.0 |
| 20260508031530 | 58 | 231 | 1.0 | 4.0 | 0.00 | 0.00 | 0.00 | 65 | 1009.8 |
| 20260508030027 | 58 | 237 | 0.0 | 4.0 | 0.00 | 0.00 | 0.00 | 64 | 1009.7 |
| 20260508024527 | 58 | 239 | 1.0 | 5.0 | 0.00 | 0.00 | 0.00 | 63 | 1009.6 |
| 20260508023026 | 59 | 230 | 0.0 | 5.0 | 0.00 | 0.00 | 0.00 | 62 | 1009.6 |
| 20260508021526 | 59 | 232 | 0.0 | 3.0 | 0.00 | 0.00 | 0.00 | 60 | 1009.5 |
| 20260508020025 | 60 | 232 | 0.0 | 4.0 | 0.00 | 0.00 | 0.00 | 59 | 1009.3 |
| 20260508014534 | 61 | 234 | 0.0 | 2.0 | 0.00 | 0.00 | 0.00 | 57 | 1009.3 |
| 20260508013024 | 62 | 234 | 0.0 | 2.0 | 0.00 | 0.00 | 0.00 | 55 | 1009.4 |
| 20260508011523 | 63 | 234 | 0.0 | 5.0 | 0.00 | 0.00 | 0.00 | 53 | 1009.4 |
| 20260508010039 | 64 | 242 | 0.0 | 3.0 | 0.00 | 0.00 | 0.00 | 52 | 1009.3 |
| 20260508004526 | 65 | 246 | 1.0 | 7.0 | 0.00 | 0.00 | 0.00 | 51 | 1009.3 |
| 20260508003022 | 66 | 277 | 4.0 | 10.0 | 0.00 | 0.00 | 0.00 | 50 | 1009.4 |
| 20260508001521 | 66 | 252 | 5.0 | 9.0 | 0.00 | 0.00 | 0.00 | 48 | 1009.3 |
| 20260508000019 | 67 | 257 | 6.0 | 15.0 | 0.00 | 0.00 | 0.00 | 47 | 1009.4 |
| 20260507234519 | 68 | 253 | 6.0 | 12.0 | 0.00 | 0.00 | 0.00 | 47 | 1009.6 |
| 20260507233017 | 68 | 264 | 5.0 | 14.0 | 0.00 | 0.00 | 0.00 | 48 | 1009.8 |
| 20260507231516 | 66 | 214 | 4.0 | 8.0 | 0.00 | 0.00 | 0.00 | 50 | 1009.9 |
| 20260507230019 | 66 | 284 | 6.0 | 12.0 | 0.00 | 0.00 | 0.00 | 47 | 1010.1 |
| 20260507224517 | 67 | 259 | 4.0 | 13.0 | 0.00 | 0.00 | 0.00 | 48 | 1010.0 |
| 20260507223013 | 68 | 236 | 8.0 | 13.0 | 0.00 | 0.00 | 0.00 | 47 | 1010.1 |
| 20260507221512 | 69 | 250 | 6.0 | 16.0 | 0.00 | 0.00 | 0.00 | 44 | 1010.2 |
| 20260507220010 | 69 | 244 | 9.0 | 14.0 | 0.00 | 0.00 | 0.00 | 45 | 1010.2 |
| 20260507214508 | 69 | 183 | 5.0 | 16.0 | 0.00 | 0.00 | 0.00 | 47 | 1010.2 |
| 20260507213005 | 69 | 260 | 8.0 | 19.0 | 0.00 | 0.00 | 0.00 | 45 | 1010.3 |
| 20260507211503 | 68 | 244 | 8.0 | 19.0 | 0.00 | 0.00 | 0.00 | 48 | 1010.4 |
| 20260507210105 | 67 | 252 | 7.0 | 17.0 | 0.00 | 0.00 | 0.00 | 45 | 1010.6 |
| 20260507204601 | 67 | 265 | 11.0 | 18.0 | 0.00 | 0.00 | 0.00 | 46 | 1010.7 |
| 20260507203100 | 67 | 277 | 12.0 | 19.0 | 0.00 | 0.00 | 0.00 | 44 | 1011.0 |
| 20260507201555 | 67 | 232 | 9.0 | 19.0 | 0.00 | 0.00 | 0.00 | 45 | 1011.1 |
| 20260507200051 | 67 | 278 | 9.0 | 15.0 | 0.00 | 0.00 | 0.00 | 46 | 1011.4 |
| 20260507194550 | 67 | 281 | 6.0 | 15.0 | 0.00 | 0.00 | 0.00 | 50 | 1011.7 |
| 20260507193046 | 66 | 255 | 11.0 | 23.0 | 0.00 | 0.00 | 0.00 | 47 | 1012.0 |
| 20260507191544 | 66 | 259 | 10.0 | 18.0 | 0.00 | 0.00 | 0.00 | 48 | 1012.2 |